Regional Weather Roundup
Issued by NWS Boston, MA

Home | Current Version | Previous Version | Text Only | Print | Product List | Glossary On
Versions: 1 2 3 4 5 6 7 8 9 10 11 12 13 14 15 16 17 18 19 20 21 22 23 24 25 26 27 28 29 30 31 32 33 34 35 36 37 38 39 40 41 42 43 44 45 46 47 48 49 50
000
ASUS41 KBOX 231310
RWRBOX

REGIONAL WEATHER ROUNDUP
NATIONAL WEATHER SERVICE TAUNTON MA
900 AM EDT SAT MAY 23 2015

NOTE:  "FAIR" INDICATES FEW OR NO CLOUDS BELOW 12,000 FEET WITH NO
SIGNIFICANT WEATHER AND/OR OBSTRUCTIONS TO VISIBILITY.  THE FOLLOWING
OBSERVATION LOCATIONS DO NOT REPORT PRESENT WEATHER...PROVINCETOWN...
SMITHFIELD...BLOCK ISLAND...KEENE...AND OXFORD.

MAZALL-231400-
EASTERN MASSACHUSETTS

CITY           SKY/WX    TMP DP  RH WIND       PRES   REMARKS
BOSTON         SUNNY     49  18  29 NW12G25   30.32R
BEVERLY        SUNNY     48  20  32 NW14G20   30.30R
LAWRENCE       SUNNY     48  22  35 NW15G22   30.32R
BEDFORD        SUNNY     48  19  31 NW13G23   30.31R
BLUE HILL        N/A     47  19  33 NW16G26   30.29R
NORWOOD        SUNNY     49  21  33 NW16G25   30.32S
MARSHFIELD     SUNNY     48  21  34 NW10G20   30.33S
PLYMOUTH       SUNNY     49  21  33 NW16G23   30.32R
TAUNTON        SUNNY     50  22  33 VRB6G17   30.32S
NEW BEDFORD    SUNNY     50  25  37 NW5G16    30.32R
$$

MAZALL-231400-
CAPE COD AND THE ISLANDS

CITY           SKY/WX    TMP DP  RH WIND       PRES   REMARKS
FALMOUTH       SUNNY     48  21  34 NW14      30.32R
HYANNIS        SUNNY     50  24  36 NW14G21   30.30R
CHATHAM        SUNNY     48  24  39 NW10G21   30.31R
PROVINCETOWN   SUNNY     48  25  40 NW16G24   30.32R
NANTUCKET      SUNNY     51  29  42 NW23G32   30.31R
MARTHAS VNYRD  SUNNY     51  26  37 NW16G26   30.32R
$$

MAZALL-231400-
CENTRAL AND WESTERN MASSACHUSETTS

CITY           SKY/WX    TMP DP  RH WIND       PRES   REMARKS
WORCESTER      SUNNY     45  17  32 NW9G21    30.31R
FITCHBURG      SUNNY     48  18  30 NW15G26   30.33R
ORANGE         SUNNY     46  20  35 W9G20     30.33R
SPRINGFIELD    SUNNY     48  20  32 W10       30.34R
WESTFIELD      SUNNY     49  20  31 NW13      30.35S
NORTH ADAMS    SUNNY     45  23  42 VRB5      30.35R
PITTSFIELD     SUNNY     43  22  43 W12G21    30.33R
$$

RIZALL-231400-
RHODE ISLAND

CITY           SKY/WX    TMP DP  RH WIND       PRES   REMARKS
PROVIDENCE     MOSUNNY   50  20  30 NW8G21    30.34R
NEWPORT        SUNNY     48  26  42 NW13G20   30.33R
BLOCK ISLAND   SUNNY     52  28  40 NW12      30.35R
SMITHFIELD     SUNNY     48  18  29 NW12G20   30.33R
WESTERLY       SUNNY     52  26  36 NW12G18   30.35R
$$

CTZALL-231400-
CONNECTICUT

CITY           SKY/WX    TMP DP  RH WIND       PRES   REMARKS
BRADLEY INTL   MOSUNNY   49  21  33 NW12      30.36R
HARTFORD       SUNNY     49  22  34 NW8       30.38R
BRIDGEPORT     SUNNY     52  25  35 N10       30.39R
DANBURY        SUNNY     48  22  35 N13       30.40R
GROTON         SUNNY     51  23  33 NW12G23   30.35R
NEW HAVEN      SUNNY     50  25  37 NW8       30.38R
CHESTER        FAIR      48  21  34 NW15G22   30.36S
MERIDEN        SUNNY     50  23  34 NW12G21   30.38R
WILLIMANTIC    SUNNY     49  22  34 W14       30.36R
OXFORD         SUNNY     46  25  42 NW6       30.39R
$$

MEZ002-015-021-024-NHZ003-005-008-011-012-014-VTZ005-008-231400-
NORTHERN NEW ENGLAND

CITY           SKY/WX    TMP DP  RH WIND       PRES   REMARKS
PORTLAND ME    MOSUNNY   50  23  34 NW22G28   30.23R
BANGOR ME      PTSUNNY   44  22  41 W18G30    30.11R
CONCORD NH     SUNNY     48  20  32 NW17G24   30.29R
MANCHESTER NH  SUNNY     48  19  31 NW10G26   30.29R
NASHUA NH      SUNNY     48  19  31 NW16G24   30.32R
PORTSMOUTH NH  MOSUNNY   48  21  34 W12G21    30.26S
JAFFREY NH     SUNNY     44  19  36 VRB7G17   30.30R
KEENE NH       SUNNY     45  19  36 NW14G22   30.33R
BURLINGTON VT  MOSUNNY   47  24  40 NW13      30.33R
MT. WASHINGTON FOG       12  12 100 NW60G79     N/A  VSB 1/8 WCI -15
$$

NYZ052-076-231400-
EASTERN NEW YORK

CITY           SKY/WX    TMP DP  RH WIND       PRES   REMARKS
ALBANY         SUNNY     48  23  37 NW10      30.39S
NEW YORK CITY  MOSUNNY   51  30  44 NW12      30.40R
$$

ANZALL-231400-
MARINE OBSERVATIONS

STATION/POSITION TIME  TEMP    WIND        PRES    VSBY  WAVE
                       AIR SEA DIR/SP/G                  HT/PER
                 (UTC) (F)     (DEG/KT/KT) (MB)    (MI)  (FT/S)
BOSTON BUOY      1250   46 52  310/ 17/ 23   N/A           3/ 4
BUZZARDS BAY     1300          320/ 15/ 17   N/A
NANTUCKET SOUND  1250   48 55  320/ 17/ 21   N/A           3/ 4
MASS BAY-STELLWA 1204   45 49  290/ 17/ 19   N/A    1 7/8  3/ 8
ISLE OF SHOALS   1300   44     290/ 20/ 23   N/A
S OF BLOCK IS    1208      52                N/A           5/ 5
$$

......................KEY.........................
  SKY/WX - SKY CONDITION/PRESENT WEATHER
  TMP    - TEMPERATURE IN FAHRENHEIT
  DWPT   - DEWPOINT IN FAHRENHEIT
  RH     - RELATIVE HUMIDITY IN PERCENT
  WIND   - DIRECTION AND SPEED IN MPH
  PRES   - MEAN SEA LEVEL PRESSURE IN INCHES OF HG
  WCI    - WIND CHILL INDEX
  VSB    - VISIBILITY IN MILES
  HX     - HEAT INDEX
  TC     - TEMPERATURE IN CELSIUS
  VRB    - VARIABLE WIND DIRECTION
  N/A    - NOT AVAILABLE


USA.gov is the U.S. government's official web portal to all federal, state and local government web resources and services.